Flag for U.S.A. Weather past 2 weeks in Waterbury, Connecticut, U.S.A.

Now
46 °F

Clear.


Feels Like: 43 °F
Forecast: 42 / 63 °F
Wind: 7 mph from Northwest

Location: Oxford

Current Time: Oct 25, 2014 at 5:35:07 AM

Latest Report: Oct 25, 2014 at 5:15 AM


Visibility: 10 mi

Pressure: 29.83 "Hg

Humidity: 71%

Dew point: 37 °F

Location of WaterburyLocation

Historic Weather in Waterbury — Graph

°F

Waterbury temperature yesterday

Maximum temperature yesterday: 52 °F (at 1:50 PM)
Minimum temperature yesterday: 46 °F (at 12:15 AM)
Average temperature yesterday: 48 °F

Past Weeks' High & Low Weather Summary

 TemperatureHumidityPressure
High73 °F (Oct 14, 2:50 PM)100% (Oct 18, 8:45 AM)30.35 "Hg (Oct 18, 8:45 AM)
Low32 °F (Oct 20, 2:35 AM)42% (Oct 19, 5:50 PM)29.54 "Hg (Oct 18, 2:50 PM)
Average53 °F74%29.94 "Hg
* Reported Oct 10 4:15 AM — Oct 25 4:35 AM, Waterbury, Weather by CustomWeather, © 2014

Note: Actual official high and low records may vary slightly from our data, if they occured in-between our weather recording intervals... More about our weather records

Advertising

Waterbury weather history for previous 24 hours

 ConditionsComfort  
Time TempWeatherWind HumidityBarometerVisibility
4:35 AM
Oct 25
48 °FClear.8 mph66%29.82 "Hg10 mi
4:15 AM48 °FClear.13 mph66%29.82 "Hg10 mi
3:55 AM48 °FClear.8 mph66%29.82 "Hg10 mi
3:35 AM48 °FClear.12 mph66%29.82 "Hg10 mi
3:15 AM46 °FClear.8 mph71%29.82 "Hg10 mi
2:55 AM46 °FClear.8 mph71%29.82 "Hg10 mi
2:35 AM46 °FClear.7 mph71%29.82 "Hg10 mi
1:55 AM48 °FClear.7 mph66%29.82 "Hg10 mi
1:35 AM48 °FClear.7 mph71%29.82 "Hg10 mi
1:15 AM48 °FClear.7 mph71%29.81 "Hg10 mi
12:55 AM48 °FClear.8 mph71%29.82 "Hg10 mi
12:35 AM48 °FClear.9 mph71%29.82 "Hg10 mi
12:15 AM50 °FClear.9 mph67%29.81 "Hg10 mi
11:55 PM
Oct 24
50 °FClear.12 mph67%29.81 "Hg10 mi
11:15 PM50 °FClear.9 mph67%29.81 "Hg10 mi
10:55 PM50 °FClear.10 mph67%29.81 "Hg10 mi
10:35 PM48 °FClear.7 mph76%29.80 "Hg10 mi
10:15 PM46 °FClear.5 mph76%29.80 "Hg10 mi
9:55 PM48 °FClear.No wind76%29.80 "Hg10 mi
9:35 PM48 °FClear.3 mph76%29.80 "Hg10 mi
9:15 PM50 °FClear.5 mph71%29.80 "Hg10 mi
8:58 PM48 °FClear.No wind82%29.79 "Hg10 mi
7:50 PM48 °FPassing clouds.5 mph71%29.79 "Hg10 mi
6:45 PM52 °FOvercast.5 mph72%29.79 "Hg10 mi
5:50 PM52 °FOvercast.9 mph67%29.78 "Hg10 mi
4:48 PM52 °FMostly cloudy.12 mph67%29.76 "Hg10 mi
3:48 PM50 °FOvercast.12 mph67%29.78 "Hg10 mi
2:50 PM50 °FOvercast.14 mph67%29.76 "Hg10 mi
1:50 PM52 °FOvercast.9 mph62%29.76 "Hg10 mi
9:45 AM46 °FLow clouds.9 mph82%29.78 "Hg10 mi
8:45 AM46 °FDrizzle. Fog.5 mph82%29.78 "Hg2 mi
7:45 AM46 °FLight rain. Fog.5 mph76%29.78 "Hg4 mi
6:45 AM46 °FLight rain. Overcast.8 mph76%29.76 "Hg8 mi
5:45 AM48 °FOvercast.6 mph71%29.75 "Hg10 mi
5:35 AM48 °FMostly cloudy.9 mph71%29.75 "Hg10 mi
5:15 AM48 °FOvercast.14 mph71%29.75 "Hg10 mi
Weather by CustomWeather, © 2014

See weather overviewHow to use our weather pages